Location: Ergnies
(50.0854°N, 2.0375°E)
Time: 09:41:15
(UTC+00:00)

CZ-4 R/B - Pass Details

Date: 14 January 2026
Orbit: 676 x 743 km, 98.7° (Epoch: 17 February)

Event Time Altitude Azimuth Distance (km) Brightness Sun altitude
Rises 05:07:21 0° 16° (NNE) 3,089 7.3 -24.6°
Reaches altitude 10° 05:09:36 10° 19° (NNE) 2,177 6.5 -24.3°
Maximum altitude 05:14:22 71° 104° (ESE) 755 4.0 -23.5°
Drops below altitude 10° 05:19:11 10° 188° (S) 2,203 6.4 -22.7°
Sets 05:21:28 0° 191° (S) 3,129 7.1 -22.4°
